This is the latest recevied weather packets stored in our database for station/object K0APR. If no packets are shown the sender has not sent any weather packets the latest 10 day(s).
| Time | Temp. | Humidity | Pressure | Rain* | Wind** | Luminosity | Snow |
|---|---|---|---|---|---|---|---|
| 1788279500 | 25° C | 66% | 1015.8 hPa | 0 mm | - | 510 W/m² | - |
| 1788279194 | 25° C | 65% | 1015.8 hPa | 0 mm | - | 498 W/m² | - |
| 1788278890 | 23.89° C | 68% | 1015.8 hPa | 0 mm | - | 408 W/m² | - |
| 1788278586 | 23.89° C | 68% | 1015.8 hPa | 0 mm | - | 318 W/m² | - |
| 1788278285 | 23.89° C | 69% | 1015.8 hPa | 0 mm | - | 261 W/m² | - |
| 1788277980 | 23.89° C | 68% | 1015.8 hPa | 0 mm | - | 224 W/m² | - |
| 1788277676 | 23.89° C | 68% | 1016.1 hPa | 0 mm | - | 196 W/m² | - |
| 1788277370 | 23.89° C | 68% | 1015.8 hPa | 0 mm | - | 185 W/m² | - |
| 1788277065 | 23.89° C | 67% | 1015.8 hPa | 0 mm | - | 181 W/m² | - |
| 1788276764 | 23.89° C | 66% | 1015.8 hPa | 0 mm | - | 186 W/m² | - |
| 1788276463 | 23.89° C | 65% | 1015.8 hPa | 0 mm | - | 200 W/m² | - |
| 1788276163 | 23.89° C | 65% | 1015.8 hPa | 0 mm | - | 193 W/m² | - |
| 1788275858 | 23.89° C | 64% | 1016.1 hPa | 0 mm | - | 301 W/m² | - |
| 1788275553 | 23.33° C | 66% | 1015.8 hPa | 0 mm | - | 302 W/m² | - |
| 1788275252 | 23.89° C | 66% | 1015.5 hPa | 0 mm | - | 392 W/m² | - |
| 1788274950 | 23.33° C | 66% | 1015.5 hPa | 0 mm | - | 361 W/m² | - |
| 1788274648 | 23.33° C | 66% | 1015.5 hPa | 0 mm | - | 352 W/m² | - |
| 1788274348 | 22.78° C | 69% | 1015.5 hPa | 0 mm | - | 367 W/m² | - |
| 1788274044 | 22.22° C | 71% | 1015.1 hPa | 0 mm | - | 352 W/m² | - |
| 1788273739 | 21.67° C | 74% | 1015.1 hPa | 0 mm | - | 289 W/m² | - |
| 1788273434 | 21.11° C | 75% | 1015.1 hPa | 0 mm | - | 251 W/m² | - |
| 1788273130 | 21.11° C | 76% | 1015.5 hPa | 0 mm | - | 247 W/m² | - |
| 1788272826 | 20.56° C | 77% | 1015.5 hPa | 0 mm | - | 206 W/m² | - |
| 1788272525 | 20.56° C | 78% | 1015.5 hPa | 0 mm | - | 188 W/m² | - |
| 1788272221 | 21.11° C | 77% | 1015.5 hPa | 0 mm | - | 159 W/m² | - |
* Rain latest hour (hover to see other rain measurements)
** Current wind speed in m/s (hover to see current wind gust speed)